When you browse on this site, cookies collect data to enhance your experience and personalize the content and advertising you see.
Visit our Privacy Policy to learn more. By continuing to use the site, you agree to this use of cookies and data.
  • In Portugal
  • List of Countries
  • For 7 days
  • Water Temperature
  • Weather Map
  • Weather Widgets
  • user-avatar
    Login

    Hourly Weather Moncada

    Today, 22 August, Thursday

    Time Temperature Precipitation Wind Pressure Humidity
    00:00 +24°C° 0 mm 1 mps 761 mmHg 63%
    01:00 +23°C° 0 mm 1 mps 761 mmHg 63%
    02:00 +23°C° 0 mm 1 mps 761 mmHg 62%
    03:00 +23°C° 0 mm 1 mps 760 mmHg 61%
    04:00 +23°C° 0 mm 1 mps 761 mmHg 60%
    05:00 +23°C° 0 mm 1 mps 761 mmHg 60%
    06:00 +23°C° 0 mm 1 mps 761 mmHg 59%
    07:00 +25°C° 0 mm 1 mps 761 mmHg 54%
    08:00 +27°C° 0 mm 1 mps 761 mmHg 48%
    09:00 +29°C° 0 mm 1 mps 762 mmHg 43%
    10:00 +30°C° 0 mm 2 mps 761 mmHg 40%
    11:00 +33°C° 0 mm 3 mps 761 mmHg 37%
    12:00 +34°C° 0 mm 3 mps 761 mmHg 34%
    13:00 +34°C° 0 mm 4 mps 761 mmHg 34%
    14:00 +34°C° 0 mm 4 mps 760 mmHg 35%
    15:00 +34°C° 0 mm 5 mps 760 mmHg 36%
    16:00 +33°C° 0 mm 4 mps 760 mmHg 42%
    17:00 +30°C° 0 mm 4 mps 760 mmHg 47%
    18:00 +29°C° 0 mm 3 mps 760 mmHg 52%
    19:00 +28°C° 0 mm 2 mps 760 mmHg 59%
    20:00 +26°C° 0 mm 1 mps 761 mmHg 65%
    21:00 +23°C° 0 mm 0 mps 761 mmHg 72%
    22:00 +25°C° 0 mm 1 mps 761 mmHg 71%
    23:00 +25°C° 0 mm 1 mps 761 mmHg 71%

    Tomorrow, 23 August, Friday

    Time Temperature Precipitation Wind Pressure Humidity
    00:00 +24°C° 0 mm 1 mps 761 mmHg 70%
    01:00 +24°C° 0 mm 1 mps 761 mmHg 69%
    02:00 +24°C° 0 mm 1 mps 761 mmHg 67%
    03:00 +24°C° 0 mm 1 mps 761 mmHg 65%
    04:00 +24°C° 0 mm 1 mps 761 mmHg 63%
    05:00 +24°C° 0 mm 1 mps 761 mmHg 60%
    06:00 +24°C° 0 mm 1 mps 761 mmHg 58%
    07:00 +26°C° 0 mm 1 mps 761 mmHg 49%
    08:00 +29°C° 0 mm 1 mps 761 mmHg 40%
    09:00 +31°C° 0 mm 1 mps 761 mmHg 31%
    10:00 +32°C° 0 mm 1 mps 761 mmHg 29%
    11:00 +34°C° 0 mm 2 mps 761 mmHg 26%
    12:00 +36°C° 0 mm 3 mps 760 mmHg 24%
    13:00 +36°C° 0 mm 4 mps 760 mmHg 24%
    14:00 +35°C° 0 mm 4 mps 760 mmHg 25%
    15:00 +35°C° 0 mm 5 mps 759 mmHg 25%
    16:00 +34°C° 0 mm 4 mps 759 mmHg 29%
    17:00 +32°C° 0 mm 4 mps 759 mmHg 34%
    18:00 +30°C° 0 mm 3 mps 759 mmHg 38%
    19:00 +28°C° 0 mm 2 mps 759 mmHg 45%
    20:00 +27°C° 0 mm 1 mps 760 mmHg 51%
    21:00 +25°C° 0 mm 1 mps 760 mmHg 58%
    22:00 +25°C° 0 mm 1 mps 760 mmHg 55%
    23:00 +25°C° 0 mm 1 mps 760 mmHg 53%

    Day after tomorrow, 24 August, Saturday

    Time Temperature Precipitation Wind Pressure Humidity
    00:00 +25°C° 0 mm 1 mps 760 mmHg 50%
    01:00 +25°C° 0 mm 1 mps 760 mmHg 49%
    02:00 +25°C° 0 mm 1 mps 760 mmHg 47%
    03:00 +24°C° 0 mm 1 mps 759 mmHg 46%
    04:00 +24°C° 0 mm 1 mps 759 mmHg 45%
    05:00 +24°C° 0 mm 1 mps 759 mmHg 45%
    06:00 +24°C° 0 mm 1 mps 759 mmHg 44%
    07:00 +27°C° 0 mm 1 mps 759 mmHg 38%
    08:00 +29°C° 0 mm 1 mps 760 mmHg 32%
    09:00 +32°C° 0 mm 1 mps 760 mmHg 27%
    10:00 +34°C° 0 mm 2 mps 760 mmHg 25%
    11:00 +35°C° 0 mm 3 mps 759 mmHg 23%
    12:00 +37°C° 0 mm 4 mps 759 mmHg 22%
    13:00 +36°C° 0 mm 4 mps 759 mmHg 23%
    14:00 +36°C° 0 mm 5 mps 758 mmHg 25%
    15:00 +36°C° 0 mm 5 mps 758 mmHg 27%
    16:00 +34°C° 0 mm 5 mps 758 mmHg 32%
    17:00 +33°C° 0 mm 4 mps 758 mmHg 37%
    18:00 +30°C° 0 mm 3 mps 758 mmHg 42%
    19:00 +29°C° 0 mm 2 mps 758 mmHg 49%
    20:00 +27°C° 0 mm 2 mps 759 mmHg 57%
    21:00 +26°C° 0 mm 1 mps 759 mmHg 65%
    22:00 +26°C° 0 mm 1 mps 759 mmHg 62%
    23:00 +25°C° 0 mm 1 mps 759 mmHg 60%

    25 August, Sunday

    Time Temperature Precipitation Wind Pressure Humidity
    00:00 +25°C° 0 mm 1 mps 759 mmHg 58%
    01:00 +25°C° 0 mm 1 mps 758 mmHg 58%
    02:00 +25°C° 0 mm 1 mps 758 mmHg 57%
    03:00 +24°C° 0 mm 1 mps 758 mmHg 57%
    04:00 +24°C° 0 mm 1 mps 758 mmHg 56%
    05:00 +24°C° 0 mm 1 mps 758 mmHg 56%
    06:00 +25°C° 0 mm 1 mps 758 mmHg 55%
    07:00 +27°C° 0 mm 1 mps 758 mmHg 51%
    08:00 +29°C° 0 mm 1 mps 758 mmHg 46%
    09:00 +31°C° 0 mm 1 mps 758 mmHg 41%
    10:00 +32°C° 0 mm 2 mps 758 mmHg 38%
    11:00 +35°C° 0 mm 3 mps 758 mmHg 35%
    12:00 +36°C° 0 mm 5 mps 757 mmHg 32%
    13:00 +35°C° 0 mm 5 mps 757 mmHg 34%
    14:00 +35°C° 0 mm 5 mps 757 mmHg 37%
    15:00 +34°C° 0 mm 6 mps 756 mmHg 39%
    16:00 +33°C° 0 mm 5 mps 756 mmHg 45%
    17:00 +30°C° 0 mm 5 mps 756 mmHg 51%
    18:00 +29°C° 0 mm 4 mps 756 mmHg 57%
    19:00 +28°C° 0 mm 3 mps 757 mmHg 65%
    20:00 +26°C° 0 mm 3 mps 757 mmHg 74%
    21:00 +25°C° 0 mm 2 mps 757 mmHg 82%
    22:00 +25°C° 0 mm 2 mps 758 mmHg 83%
    23:00 +25°C° 0 mm 2 mps 758 mmHg 84%

    26 August, Monday

    Time Temperature Precipitation Wind Pressure Humidity
    00:00 +25°C° 0 mm 1 mps 758 mmHg 85%
    01:00 +25°C° 0 mm 1 mps 758 mmHg 85%
    02:00 +25°C° 0 mm 1 mps 758 mmHg 85%
    03:00 +25°C° 0 mm 1 mps 757 mmHg 85%
    04:00 +25°C° 0 mm 2 mps 758 mmHg 84%
    05:00 +25°C° 0 mm 2 mps 758 mmHg 84%
    06:00 +25°C° 0 mm 3 mps 758 mmHg 84%
    07:00 +26°C° 0 mm 3 mps 758 mmHg 77%
    08:00 +27°C° 0 mm 4 mps 758 mmHg 70%
    09:00 +29°C° 0 mm 5 mps 759 mmHg 62%
    10:00 +30°C° 0 mm 6 mps 758 mmHg 59%
    11:00 +30°C° 0 mm 6 mps 758 mmHg 55%
    12:00 +32°C° 0 mm 7 mps 758 mmHg 51%
    13:00 +32°C° 0 mm 6 mps 758 mmHg 52%
    14:00 +32°C° 0 mm 6 mps 757 mmHg 53%
    15:00 +32°C° 0 mm 6 mps 757 mmHg 53%
    16:00 +30°C° 0 mm 5 mps 757 mmHg 57%
    17:00 +29°C° 0 mm 5 mps 757 mmHg 61%
    18:00 +28°C° 0 mm 5 mps 756 mmHg 64%
    19:00 +27°C° 0 mm 4 mps 757 mmHg 72%
    20:00 +26°C° 0 mm 4 mps 757 mmHg 80%
    21:00 +25°C° 0 mm 3 mps 758 mmHg 88%
    22:00 +25°C° 1.5 mm 3 mps 758 mmHg 87%
    23:00 +25°C° 1.5 mm 3 mps 757 mmHg 86%

    27 August, Tuesday

    Time Temperature Precipitation Wind Pressure Humidity
    00:00 +25°C° 1.5 mm 2 mps 757 mmHg 85%
    01:00 +25°C° 2.5 mm 3 mps 757 mmHg 84%
    02:00 +24°C° 2.5 mm 3 mps 757 mmHg 84%
    03:00 +23°C° 2.5 mm 4 mps 756 mmHg 83%
    04:00 +23°C° 0.5 mm 4 mps 756 mmHg 84%
    05:00 +22°C° 0.5 mm 4 mps 756 mmHg 85%
    06:00 +22°C° 0.5 mm 4 mps 756 mmHg 87%
    07:00 +23°C° 0.6 mm 4 mps 756 mmHg 80%
    08:00 +25°C° 0.6 mm 4 mps 756 mmHg 74%
    09:00 +26°C° 0.6 mm 4 mps 756 mmHg 68%
    10:00 +27°C° 0.3 mm 4 mps 756 mmHg 67%
    11:00 +28°C° 0.3 mm 4 mps 756 mmHg 65%
    12:00 +28°C° 0.3 mm 4 mps 756 mmHg 64%
    13:00 +28°C° 0.1 mm 4 mps 755 mmHg 64%
    14:00 +29°C° 0.1 mm 3 mps 755 mmHg 63%
    15:00 +29°C° 0.1 mm 3 mps 754 mmHg 62%
    16:00 +28°C° 0 mm 3 mps 755 mmHg 65%
    17:00 +28°C° 0 mm 3 mps 755 mmHg 67%
    18:00 +27°C° 0 mm 3 mps 755 mmHg 70%
    19:00 +26°C° 0.1 mm 2 mps 755 mmHg 75%
    20:00 +25°C° 0.1 mm 2 mps 755 mmHg 81%
    21:00 +24°C° 0.1 mm 1 mps 755 mmHg 86%
    22:00 +24°C° 0 mm 1 mps 755 mmHg 87%
    23:00 +24°C° 0 mm 1 mps 755 mmHg 88%
    Show more